Data;Hora;Chuva (mm);N�vel (cm);Vaz�o (m3/s);
01/09/2023;00:00:00;0             ;309             ;2,583.72;
01/09/2023;00:15:00;0             ;308             ;2,570.58;
01/09/2023;00:30:00;0             ;308             ;2,570.58;
01/09/2023;00:45:00;0             ;308             ;2,570.58;
01/09/2023;01:00:00;0             ;308             ;2,570.58;
01/09/2023;01:15:00;0             ;308             ;2,570.58;
01/09/2023;01:30:00;0             ;308             ;2,570.58;
01/09/2023;01:45:00;0             ;308             ;2,570.58;
01/09/2023;02:00:00;0             ;307             ;2,557.47;
01/09/2023;02:15:00;0             ;307             ;2,557.47;
01/09/2023;02:30:00;0             ;308             ;2,570.58;
01/09/2023;02:45:00;0             ;307             ;2,557.47;
01/09/2023;03:00:00;0             ;308             ;2,570.58;
01/09/2023;03:15:00;0             ;307             ;2,557.47;
01/09/2023;03:30:00;0             ;307             ;2,557.47;
01/09/2023;03:45:00;0             ;308             ;2,570.58;
01/09/2023;04:00:00;0             ;308             ;2,570.58;
01/09/2023;04:15:00;0             ;308             ;2,570.58;
01/09/2023;04:30:00;0             ;307             ;2,557.47;
01/09/2023;04:45:00;0             ;306             ;2,544.39;
01/09/2023;05:00:00;0             ;306             ;2,544.39;
01/09/2023;05:15:00;0             ;307             ;2,557.47;
01/09/2023;05:30:00;0             ;306             ;2,544.39;
01/09/2023;05:45:00;0             ;306             ;2,544.39;
01/09/2023;06:00:00;0             ;306             ;2,544.39;
01/09/2023;06:15:00;0             ;306             ;2,544.39;
01/09/2023;06:30:00;0             ;307             ;2,557.47;
01/09/2023;06:45:00;1.2             ;308             ;2,570.58;
01/09/2023;07:00:00;0             ;306             ;2,544.39;
01/09/2023;07:15:00;0             ;306             ;2,544.39;
01/09/2023;07:30:00;0             ;305             ;2,531.34;
01/09/2023;07:45:00;0             ;305             ;2,531.34;
01/09/2023;08:00:00;0             ;305             ;2,531.34;
01/09/2023;08:15:00;0             ;306             ;2,544.39;
01/09/2023;08:30:00;0             ;306             ;2,544.39;
01/09/2023;08:45:00;0.2             ;306             ;2,544.39;
01/09/2023;09:00:00;0             ;306             ;2,544.39;
01/09/2023;09:15:00;0             ;306             ;2,544.39;
01/09/2023;09:30:00;0             ;306             ;2,544.39;
01/09/2023;09:45:00;0             ;307             ;2,557.47;
01/09/2023;10:00:00;0             ;307             ;2,557.47;
01/09/2023;10:15:00;0.2             ;308             ;2,570.58;
01/09/2023;10:30:00;0             ;308             ;2,570.58;
01/09/2023;10:45:00;0             ;308             ;2,570.58;
01/09/2023;11:00:00;0             ;307             ;2,557.47;
01/09/2023;11:15:00;0             ;308             ;2,570.58;
01/09/2023;11:30:00;0             ;308             ;2,570.58;
01/09/2023;11:45:00;0             ;308             ;2,570.58;
01/09/2023;12:00:00;0             ;308             ;2,570.58;
01/09/2023;12:15:00;0             ;307             ;2,557.47;
01/09/2023;12:30:00;0             ;308             ;2,570.58;
01/09/2023;12:45:00;0             ;308             ;2,570.58;
01/09/2023;13:00:00;0             ;307             ;2,557.47;
01/09/2023;13:15:00;0             ;308             ;2,570.58;
01/09/2023;13:30:00;0             ;307             ;2,557.47;
01/09/2023;13:45:00;0             ;307             ;2,557.47;
01/09/2023;14:00:00;0             ;306             ;2,544.39;
01/09/2023;14:15:00;0             ;307             ;2,557.47;
01/09/2023;14:30:00;0             ;307             ;2,557.47;
01/09/2023;14:45:00;0             ;307             ;2,557.47;
01/09/2023;15:00:00;0             ;306             ;2,544.39;
01/09/2023;15:15:00;0             ;306             ;2,544.39;
01/09/2023;15:30:00;0             ;306             ;2,544.39;
01/09/2023;15:45:00;             ;306             ;2,544.39;
01/09/2023;16:00:00;1             ;306             ;2,544.39;
01/09/2023;16:15:00;0.2             ;306             ;2,544.39;
01/09/2023;16:30:00;0             ;306             ;2,544.39;
01/09/2023;16:45:00;             ;306             ;2,544.39;
01/09/2023;17:00:00;1             ;306             ;2,544.39;
01/09/2023;17:15:00;0.2             ;306             ;2,544.39;
01/09/2023;17:30:00;0             ;306             ;2,544.39;
01/09/2023;17:45:00;0             ;306             ;2,544.39;
01/09/2023;18:00:00;0             ;306             ;2,544.39;
01/09/2023;18:15:00;0             ;306             ;2,544.39;
01/09/2023;18:30:00;0             ;306             ;2,544.39;
01/09/2023;18:45:00;0             ;307             ;2,557.47;
01/09/2023;19:00:00;0             ;305             ;2,531.34;
01/09/2023;19:15:00;0             ;305             ;2,531.34;
01/09/2023;19:30:00;0             ;305             ;2,531.34;
01/09/2023;19:45:00;0             ;306             ;2,544.39;
01/09/2023;20:00:00;0             ;306             ;2,544.39;
01/09/2023;20:15:00;0             ;307             ;2,557.47;
01/09/2023;20:30:00;0             ;307             ;2,557.47;
01/09/2023;20:45:00;0             ;307             ;2,557.47;
01/09/2023;21:00:00;0             ;307             ;2,557.47;
01/09/2023;21:15:00;0             ;306             ;2,544.39;
01/09/2023;21:30:00;0             ;307             ;2,557.47;
01/09/2023;21:45:00;0             ;307             ;2,557.47;
01/09/2023;22:00:00;0             ;307             ;2,557.47;
01/09/2023;22:15:00;0             ;307             ;2,557.47;
01/09/2023;22:30:00;0             ;306             ;2,544.39;
01/09/2023;22:45:00;0             ;305             ;2,531.34;
01/09/2023;23:00:00;0             ;307             ;2,557.47;
01/09/2023;23:15:00;0             ;307             ;2,557.47;
01/09/2023;23:30:00;0             ;306             ;2,544.39;
01/09/2023;23:45:00;0             ;307             ;2,557.47;
02/09/2023;00:00:00;0             ;307             ;2,557.47;
02/09/2023;00:15:00;0             ;306             ;2,544.39;
02/09/2023;00:30:00;0             ;306             ;2,544.39;
02/09/2023;00:45:00;0             ;306             ;2,544.39;
02/09/2023;01:00:00;0             ;307             ;2,557.47;
02/09/2023;01:15:00;0             ;307             ;2,557.47;
02/09/2023;01:30:00;0             ;306             ;2,544.39;
02/09/2023;01:45:00;0             ;307             ;2,557.47;
02/09/2023;02:00:00;0             ;307             ;2,557.47;
02/09/2023;02:15:00;0             ;307             ;2,557.47;
02/09/2023;02:30:00;0             ;307             ;2,557.47;
02/09/2023;02:45:00;0             ;307             ;2,557.47;
02/09/2023;03:00:00;0             ;305             ;2,531.34;
02/09/2023;03:15:00;0             ;306             ;2,544.39;
02/09/2023;03:30:00;0             ;306             ;2,544.39;
02/09/2023;03:45:00;0             ;306             ;2,544.39;
02/09/2023;04:00:00;0             ;306             ;2,544.39;
02/09/2023;04:15:00;0             ;306             ;2,544.39;
02/09/2023;04:30:00;0             ;307             ;2,557.47;
02/09/2023;04:45:00;0             ;307             ;2,557.47;
02/09/2023;05:00:00;0             ;307             ;2,557.47;
02/09/2023;05:15:00;0             ;307             ;2,557.47;
02/09/2023;05:30:00;0             ;307             ;2,557.47;
02/09/2023;05:45:00;0             ;307             ;2,557.47;
02/09/2023;06:00:00;0             ;307             ;2,557.47;
02/09/2023;06:15:00;0             ;307             ;2,557.47;
02/09/2023;06:30:00;0             ;307             ;2,557.47;
02/09/2023;06:45:00;0             ;307             ;2,557.47;
02/09/2023;07:00:00;0             ;306             ;2,544.39;
02/09/2023;07:15:00;0             ;307             ;2,557.47;
02/09/2023;07:30:00;0             ;307             ;2,557.47;
02/09/2023;07:45:00;0             ;307             ;2,557.47;
02/09/2023;08:00:00;0             ;307             ;2,557.47;
02/09/2023;08:15:00;0             ;307             ;2,557.47;
02/09/2023;08:30:00;0             ;307             ;2,557.47;
02/09/2023;08:45:00;0             ;306             ;2,544.39;
02/09/2023;09:00:00;0             ;305             ;2,531.34;
02/09/2023;09:15:00;0             ;305             ;2,531.34;
02/09/2023;09:30:00;0             ;305             ;2,531.34;
02/09/2023;09:45:00;0             ;305             ;2,531.34;
02/09/2023;10:00:00;0             ;305             ;2,531.34;
02/09/2023;10:15:00;0             ;305             ;2,531.34;
02/09/2023;10:30:00;0             ;305             ;2,531.34;
02/09/2023;10:45:00;0             ;306             ;2,544.39;
02/09/2023;11:00:00;0             ;306             ;2,544.39;
02/09/2023;11:15:00;0             ;306             ;2,544.39;
02/09/2023;11:30:00;0             ;306             ;2,544.39;
02/09/2023;11:45:00;0             ;306             ;2,544.39;
02/09/2023;12:00:00;0             ;306             ;2,544.39;
02/09/2023;12:15:00;0             ;306             ;2,544.39;
02/09/2023;12:30:00;0             ;306             ;2,544.39;
02/09/2023;12:45:00;0             ;306             ;2,544.39;
02/09/2023;13:00:00;0             ;307             ;2,557.47;
02/09/2023;13:15:00;0             ;307             ;2,557.47;
02/09/2023;13:30:00;0             ;308             ;2,570.58;
02/09/2023;13:45:00;0             ;307             ;2,557.47;
02/09/2023;14:00:00;0             ;307             ;2,557.47;
02/09/2023;14:15:00;0             ;306             ;2,544.39;
02/09/2023;14:30:00;0             ;306             ;2,544.39;
02/09/2023;14:45:00;0             ;306             ;2,544.39;
02/09/2023;15:00:00;0             ;307             ;2,557.47;
02/09/2023;15:15:00;0             ;307             ;2,557.47;
02/09/2023;15:30:00;0             ;308             ;2,570.58;
02/09/2023;15:45:00;0             ;308             ;2,570.58;
02/09/2023;16:00:00;0             ;308             ;2,570.58;
02/09/2023;16:15:00;0             ;307             ;2,557.47;
02/09/2023;16:30:00;0             ;307             ;2,557.47;
02/09/2023;16:45:00;0             ;307             ;2,557.47;
02/09/2023;17:00:00;0             ;307             ;2,557.47;
02/09/2023;17:15:00;0             ;307             ;2,557.47;
02/09/2023;17:30:00;0             ;307             ;2,557.47;
02/09/2023;17:45:00;0             ;307             ;2,557.47;
02/09/2023;18:00:00;0             ;307             ;2,557.47;
02/09/2023;18:15:00;0             ;307             ;2,557.47;
02/09/2023;18:30:00;0             ;307             ;2,557.47;
02/09/2023;18:45:00;0             ;307             ;2,557.47;
02/09/2023;19:00:00;0             ;307             ;2,557.47;
02/09/2023;19:15:00;0             ;307             ;2,557.47;
02/09/2023;19:30:00;0             ;307             ;2,557.47;
02/09/2023;19:45:00;0             ;307             ;2,557.47;
02/09/2023;20:00:00;0             ;307             ;2,557.47;
02/09/2023;20:15:00;0             ;306             ;2,544.39;
02/09/2023;20:30:00;0             ;307             ;2,557.47;
02/09/2023;20:45:00;0             ;306             ;2,544.39;
02/09/2023;21:00:00;0             ;306             ;2,544.39;
02/09/2023;21:15:00;0             ;306             ;2,544.39;
02/09/2023;21:30:00;0             ;306             ;2,544.39;
02/09/2023;21:45:00;0             ;306             ;2,544.39;
02/09/2023;22:00:00;0             ;306             ;2,544.39;
02/09/2023;22:15:00;0             ;306             ;2,544.39;
02/09/2023;22:30:00;0             ;306             ;2,544.39;
02/09/2023;22:45:00;0             ;306             ;2,544.39;
02/09/2023;23:00:00;0             ;306             ;2,544.39;
02/09/2023;23:15:00;0             ;306             ;2,544.39;
02/09/2023;23:30:00;0             ;306             ;2,544.39;
02/09/2023;23:45:00;0             ;306             ;2,544.39;
03/09/2023;00:00:00;0             ;306             ;2,544.39;
03/09/2023;00:15:00;0             ;306             ;2,544.39;
03/09/2023;00:30:00;0             ;306             ;2,544.39;
03/09/2023;00:45:00;0             ;306             ;2,544.39;
03/09/2023;01:00:00;0             ;306             ;2,544.39;
03/09/2023;01:15:00;0             ;306             ;2,544.39;
03/09/2023;01:30:00;0             ;305             ;2,531.34;
03/09/2023;01:45:00;0             ;305             ;2,531.34;
03/09/2023;02:00:00;0             ;304             ;2,518.32;
03/09/2023;02:15:00;0             ;304             ;2,518.32;
03/09/2023;02:30:00;0             ;304             ;2,518.32;
03/09/2023;02:45:00;0             ;304             ;2,518.32;
03/09/2023;03:00:00;0             ;304             ;2,518.32;
03/09/2023;03:15:00;0             ;304             ;2,518.32;
03/09/2023;03:30:00;0             ;304             ;2,518.32;
03/09/2023;03:45:00;0             ;305             ;2,531.34;
03/09/2023;04:00:00;0             ;305             ;2,531.34;
03/09/2023;04:15:00;1             ;304             ;2,518.32;
03/09/2023;04:30:00;0.2             ;303             ;2,505.32;
03/09/2023;04:45:00;0             ;304             ;2,518.32;
03/09/2023;05:00:00;0             ;303             ;2,505.32;
03/09/2023;05:15:00;0.2             ;304             ;2,518.32;
03/09/2023;05:30:00;0.2             ;303             ;2,505.32;
03/09/2023;05:45:00;1.4             ;304             ;2,518.32;
03/09/2023;06:00:00;0             ;303             ;2,505.32;
03/09/2023;06:15:00;0.4             ;304             ;2,518.32;
03/09/2023;06:30:00;0.4             ;306             ;2,544.39;
03/09/2023;06:45:00;1.2             ;305             ;2,531.34;
03/09/2023;07:00:00;0.2             ;304             ;2,518.32;
03/09/2023;07:15:00;0             ;304             ;2,518.32;
03/09/2023;07:30:00;0             ;304             ;2,518.32;
03/09/2023;07:45:00;1.2             ;305             ;2,531.34;
03/09/2023;08:00:00;2.8             ;306             ;2,544.39;
03/09/2023;08:15:00;0.2             ;305             ;2,531.34;
03/09/2023;08:30:00;0.6             ;305             ;2,531.34;
03/09/2023;08:45:00;0.8             ;305             ;2,531.34;
03/09/2023;09:00:00;0.4             ;305             ;2,531.34;
03/09/2023;09:15:00;0.2             ;306             ;2,544.39;
03/09/2023;09:30:00;0.2             ;305             ;2,531.34;
03/09/2023;09:45:00;0             ;305             ;2,531.34;
03/09/2023;10:00:00;0             ;305             ;2,531.34;
03/09/2023;10:15:00;0             ;306             ;2,544.39;
03/09/2023;10:30:00;0.2             ;306             ;2,544.39;
03/09/2023;10:45:00;0             ;306             ;2,544.39;
03/09/2023;11:00:00;0             ;307             ;2,557.47;
03/09/2023;11:15:00;0             ;307             ;2,557.47;
03/09/2023;11:30:00;1             ;308             ;2,570.58;
03/09/2023;11:45:00;1             ;309             ;2,583.72;
03/09/2023;12:00:00;2             ;309             ;2,583.72;
03/09/2023;12:15:00;0.2             ;309             ;2,583.72;
03/09/2023;12:30:00;0.4             ;310             ;2,596.89;
03/09/2023;12:45:00;0             ;309             ;2,583.72;
03/09/2023;13:00:00;0             ;308             ;2,570.58;
03/09/2023;13:15:00;0             ;309             ;2,583.72;
03/09/2023;13:30:00;0.4             ;308             ;2,570.58;
03/09/2023;13:45:00;1.2             ;309             ;2,583.72;
03/09/2023;14:00:00;0.6             ;309             ;2,583.72;
03/09/2023;14:15:00;0.2             ;309             ;2,583.72;
03/09/2023;14:30:00;0             ;309             ;2,583.72;
03/09/2023;14:45:00;0             ;309             ;2,583.72;
03/09/2023;15:00:00;0             ;310             ;2,596.89;
03/09/2023;15:15:00;0             ;310             ;2,596.89;
03/09/2023;15:30:00;0             ;310             ;2,596.89;
03/09/2023;15:45:00;0             ;310             ;2,596.89;
03/09/2023;16:00:00;0             ;310             ;2,596.89;
03/09/2023;16:15:00;0             ;310             ;2,596.89;
03/09/2023;16:30:00;0             ;310             ;2,596.89;
03/09/2023;16:45:00;0             ;311             ;2,610.08;
03/09/2023;17:00:00;0             ;311             ;2,610.08;
03/09/2023;17:15:00;0             ;311             ;2,610.08;
03/09/2023;17:30:00;0.2             ;312             ;2,623.31;
03/09/2023;17:45:00;0             ;313             ;2,636.56;
03/09/2023;18:00:00;0             ;313             ;2,636.56;
03/09/2023;18:15:00;0             ;314             ;2,649.84;
03/09/2023;18:30:00;0             ;314             ;2,649.84;
03/09/2023;18:45:00;0             ;314             ;2,649.84;
03/09/2023;19:00:00;0             ;315             ;2,663.15;
03/09/2023;19:15:00;0             ;315             ;2,663.15;
03/09/2023;19:30:00;0             ;315             ;2,663.15;
03/09/2023;19:45:00;0             ;315             ;2,663.15;
03/09/2023;20:00:00;0             ;316             ;2,676.48;
03/09/2023;20:15:00;0             ;316             ;2,676.48;
03/09/2023;20:30:00;0             ;316             ;2,676.48;
03/09/2023;20:45:00;0             ;316             ;2,676.48;
03/09/2023;21:00:00;0             ;316             ;2,676.48;
03/09/2023;21:15:00;0             ;316             ;2,676.48;
03/09/2023;21:30:00;0             ;316             ;2,676.48;
03/09/2023;21:45:00;0             ;316             ;2,676.48;
03/09/2023;22:00:00;0             ;316             ;2,676.48;
03/09/2023;22:15:00;0             ;317             ;2,689.85;
03/09/2023;22:30:00;0             ;317             ;2,689.85;
03/09/2023;22:45:00;0             ;317             ;2,689.85;
03/09/2023;23:00:00;0             ;318             ;2,703.25;
03/09/2023;23:15:00;0             ;317             ;2,689.85;
03/09/2023;23:30:00;0             ;318             ;2,703.25;
03/09/2023;23:45:00;0             ;318             ;2,703.25;
04/09/2023;00:00:00;0.2             ;318             ;2,703.25;
04/09/2023;00:15:00;0.6             ;319             ;2,716.67;
04/09/2023;00:30:00;0.6             ;319             ;2,716.67;
04/09/2023;00:45:00;0             ;318             ;2,703.25;
04/09/2023;01:00:00;0             ;319             ;2,716.67;
04/09/2023;01:15:00;0             ;319             ;2,716.67;
04/09/2023;01:30:00;0             ;320             ;2,730.12;
04/09/2023;01:45:00;0             ;321             ;2,743.6;
04/09/2023;02:00:00;0.2             ;321             ;2,743.6;
04/09/2023;02:15:00;0.4             ;321             ;2,743.6;
04/09/2023;02:30:00;0.2             ;322             ;2,757.11;
04/09/2023;02:45:00;0             ;322             ;2,757.11;
04/09/2023;03:00:00;0             ;322             ;2,757.11;
04/09/2023;03:15:00;1.8             ;323             ;2,770.64;
04/09/2023;03:30:00;11.2             ;324             ;2,784.21;
04/09/2023;03:45:00;1.8             ;324             ;2,784.21;
04/09/2023;04:00:00;1.4             ;325             ;2,797.8;
04/09/2023;04:15:00;1.6             ;326             ;2,811.42;
04/09/2023;04:30:00;1.8             ;326             ;2,811.42;
04/09/2023;04:45:00;2.4             ;326             ;2,811.42;
04/09/2023;05:00:00;2.6             ;327             ;2,825.07;
04/09/2023;05:15:00;2             ;328             ;2,838.75;
04/09/2023;05:30:00;2             ;329             ;2,852.46;
04/09/2023;05:45:00;2.4             ;330             ;2,866.19;
04/09/2023;06:00:00;2.2             ;330             ;2,866.19;
04/09/2023;06:15:00;1             ;330             ;2,866.19;
04/09/2023;06:30:00;1.6             ;330             ;2,866.19;
04/09/2023;06:45:00;1.4             ;332             ;2,893.74;
04/09/2023;07:00:00;0.8             ;331             ;2,879.95;
04/09/2023;07:15:00;0.2             ;331             ;2,879.95;
04/09/2023;07:30:00;0             ;333             ;2,907.56;
04/09/2023;07:45:00;0             ;333             ;2,907.56;
04/09/2023;08:00:00;0             ;334             ;2,921.41;
04/09/2023;08:15:00;0             ;335             ;2,935.28;
04/09/2023;08:30:00;0.6             ;336             ;2,949.19;
04/09/2023;08:45:00;0.4             ;337             ;2,963.12;
04/09/2023;09:00:00;0             ;336             ;2,949.19;
04/09/2023;09:15:00;0             ;337             ;2,963.12;
04/09/2023;09:30:00;0             ;338             ;2,977.08;
04/09/2023;09:45:00;0             ;339             ;2,991.06;
04/09/2023;10:00:00;0             ;339             ;2,991.06;
04/09/2023;10:15:00;0             ;340             ;3,005.08;
04/09/2023;10:30:00;0             ;340             ;3,005.08;
04/09/2023;10:45:00;0             ;342             ;3,033.19;
04/09/2023;11:00:00;0             ;342             ;3,033.19;
04/09/2023;11:15:00;0.2             ;343             ;3,047.29;
04/09/2023;11:30:00;0.4             ;344             ;3,061.42;
04/09/2023;11:45:00;0.4             ;344             ;3,061.42;
04/09/2023;12:00:00;0.6             ;345             ;3,075.57;
04/09/2023;12:15:00;0             ;346             ;3,089.76;
04/09/2023;12:30:00;0.2             ;347             ;3,103.97;
04/09/2023;12:45:00;0.2             ;348             ;3,118.2;
04/09/2023;13:00:00;0.4             ;348             ;3,118.2;
04/09/2023;13:15:00;0.2             ;349             ;3,132.47;
04/09/2023;13:30:00;0.2             ;349             ;3,132.47;
04/09/2023;13:45:00;0             ;351             ;3,161.09;
04/09/2023;14:00:00;0             ;351             ;3,161.09;
04/09/2023;14:15:00;0             ;351             ;3,161.09;
04/09/2023;14:30:00;0.4             ;352             ;3,175.44;
04/09/2023;14:45:00;0.2             ;353             ;3,189.81;
04/09/2023;15:00:00;0             ;354             ;3,204.22;
04/09/2023;15:15:00;0             ;355             ;3,218.65;
04/09/2023;15:30:00;0             ;356             ;3,233.11;
04/09/2023;15:45:00;0             ;357             ;3,247.6;
04/09/2023;16:00:00;0             ;358             ;3,262.12;
04/09/2023;16:15:00;0             ;359             ;3,276.66;
04/09/2023;16:30:00;0             ;360             ;3,291.23;
04/09/2023;16:45:00;0             ;361             ;3,305.83;
04/09/2023;17:00:00;0             ;361             ;3,305.83;
04/09/2023;17:15:00;0             ;362             ;3,320.46;
04/09/2023;17:30:00;0             ;364             ;3,349.79;
04/09/2023;17:45:00;0             ;365             ;3,364.5;
04/09/2023;18:00:00;0             ;365             ;3,364.5;
04/09/2023;18:15:00;0             ;366             ;3,379.24;
04/09/2023;18:30:00;0             ;366             ;3,379.24;
04/09/2023;18:45:00;0             ;367             ;3,394;
04/09/2023;19:00:00;0.2             ;368             ;3,408.79;
04/09/2023;19:15:00;0.6             ;369             ;3,423.61;
04/09/2023;19:30:00;0.2             ;370             ;3,438.46;
04/09/2023;19:45:00;0             ;372             ;3,468.23;
04/09/2023;20:00:00;0             ;372             ;3,468.23;
04/09/2023;20:15:00;0             ;373             ;3,483.16;
04/09/2023;20:30:00;0             ;374             ;3,498.12;
04/09/2023;20:45:00;0             ;376             ;3,528.11;
04/09/2023;21:00:00;0             ;377             ;3,543.15;
04/09/2023;21:15:00;0             ;378             ;3,558.22;
04/09/2023;21:30:00;0             ;378             ;3,558.22;
04/09/2023;21:45:00;0             ;380             ;3,588.43;
04/09/2023;22:00:00;0             ;381             ;3,603.58;
04/09/2023;22:15:00;0             ;382             ;3,618.75;
04/09/2023;22:30:00;0             ;383             ;3,633.96;
04/09/2023;22:45:00;0             ;383             ;3,633.96;
04/09/2023;23:00:00;0             ;385             ;3,664.44;
04/09/2023;23:15:00;0             ;386             ;3,679.72;
04/09/2023;23:30:00;0             ;387             ;3,695.03;
04/09/2023;23:45:00;0             ;388             ;3,710.37;